Simultaneous Nadir Overpasses (SNOs) Predictions

Prediction of SNOs between METOP-A and NOAA-19 Satellite Orbit:

Table of predicted SNOs for the next 14.0 days since TLE Epoch: 5/29/2021
Index Date (METOP-A) Time (METOP-A) Lat,Lon (METOP-A) SZA (METOP-A ) Date (NOAA-19) Time (NOAA-19) Lat,Lon (NOAA-19) SZA (NOAA-19 ) Distance(km) Time Diff (sec)
1 06/02/2021 21:44:48 80.84,-137.18 58.63 06/02/2021 21:43:55 80.84,-137.14 58.62 0.62 53
2 06/02/2021 22:35:29 -80.85, 30.27 121.37 06/02/2021 22:34:50 -80.84, 30.10 121.39 3.19 39
3 06/02/2021 23:26:10 80.84,-162.66 58.61 06/02/2021 23:25:55 80.84,-162.51 58.62 2.87 15
4 06/03/2021 00:16:51 -80.84, 4.78 121.39 06/03/2021 00:16:50 -80.84, 4.73 121.39 0.93 1
5 06/03/2021 01:07:31 80.85, 172.19 58.61 06/03/2021 01:07:55 80.85, 172.12 58.61 1.37 24
6 06/03/2021 01:58:12 -80.86, -20.37 121.38 06/03/2021 01:58:49 -80.85, -20.27 121.38 1.81 37
7 06/03/2021 02:48:53 80.84, 146.70 58.59 06/03/2021 02:49:55 80.85, 146.74 58.61 1.21 62



Historial Predications of SNOs between METOP-A and NOAA-19
